Location: Unspecified
(0.0000°N, 0.0000°E)
Time: 19:01:59
(UTC+00:00)

Vanguard 2 Rocket - Pass Details

Date: 25 January 2020
Orbit: 554 x 3327 km, 32.9° (Epoch: 20 February)

Event Time Altitude Azimuth Distance (km) Brightness Sun altitude
Rises 12:01:28 0° 309° (NW) 5,120 10.6 70.8°
Reaches altitude 10° 12:04:17 10° 311° (NW) 4,427 10.4 70.9°
Maximum altitude 12:17:49 80° 38° (NE) 2,844 10.7 70.9°
Drops below altitude 10° 12:38:06 10° 122° (ESE) 6,288 11.4 70.0°
Sets 12:43:00 0° 123° (ESE) 7,279 11.6 69.5°
